Total_Precipitation_Accumulation
0.87 0.84 0.77 0.77 0.71 0.77 0.86 0.90 0.83 0.74 0.69 0.61 0.58 0.61 0.60 0.60 0.63 0.64 0.71 0.67 0.74 0.86 0.95 0.90 0.74 0.58 0.49 0.50 0.55 0.59 0.66 0.70 0.71 0.73 0.67 0.55 0.45 0.33 0.24 0.22 0.21 0.22 0.25
0.93 0.89 0.85 0.86 0.83 0.84 0.95 0.93 0.81 0.82 0.79 0.69 0.58 0.59 0.61 0.64 0.67 0.62 0.65 0.75 0.76 0.74 0.90 1.04 0.98 0.74 0.65 0.60 0.62 0.68 0.70 0.66 0.64 0.64 0.62 0.57 0.49 0.42 0.31 0.26 0.27 0.23 0.24
0.83 0.86 0.87 0.87 0.91 0.99 1.04 1.06 0.88 0.84 0.76 0.67 0.61 0.58 0.54 0.55 0.55 0.58 0.52 0.51 0.59 0.68 0.81 0.99 1.06 0.90 0.81 0.77 0.71 0.68 0.69 0.64 0.62 0.58 0.54 0.48 0.43 0.40 0.35 0.32 0.33 0.31 0.31
0.76 0.90 0.90 0.88 0.90 1.02 1.10 1.13 1.02 0.92 0.80 0.73 0.72 0.66 0.60 0.59 0.54 0.57 0.54 0.47 0.54 0.52 0.67 0.74 0.84 0.89 0.89 0.84 0.79 0.70 0.61 0.54 0.50 0.50 0.47 0.40 0.33 0.30 0.29 0.31 0.34 0.35 0.35
0.83 1.00 1.10 1.11 1.11 1.11 1.09 1.05 1.07 1.00 0.89 0.85 0.82 0.77 0.71 0.63 0.61 0.53 0.54 0.54 0.48 0.48 0.54 0.46 0.51 0.56 0.70 0.77 0.79 0.77 0.66 0.56 0.48 0.44 0.41 0.34 0.26 0.23 0.22 0.25 0.25 0.27 0.30
1.18 1.32 1.31 1.39 1.45 1.31 1.25 1.17 1.18 1.11 0.99 0.96 0.91 0.78 0.73 0.65 0.66 0.62 0.62 0.60 0.55 0.49 0.54 0.47 0.40 0.35 0.43 0.59 0.68 0.79 0.75 0.66 0.56 0.47 0.41 0.34 0.27 0.21 0.20 0.21 0.21 0.22 0.24
1.52 1.72 1.68 1.72 1.73 1.58 1.51 1.58 1.75 1.68 1.39 1.14 1.09 0.91 0.76 0.63 0.70 0.67 0.61 0.61 0.60 0.65 0.68 0.63 0.47 0.38 0.32 0.37 0.42 0.62 0.78 0.74 0.70 0.61 0.51 0.42 0.32 0.23 0.20 0.19 0.20 0.22 0.21
1.43 1.57 1.82 1.89 1.81 1.80 1.91 1.94 2.22 2.32 1.89 1.48 1.41 1.46 1.19 0.99 0.74 0.58 0.58 0.56 0.59 0.77 0.75 0.64 0.55 0.41 0.34 0.33 0.24 0.35 0.57 0.72 0.73 0.69 0.60 0.51 0.41 0.30 0.22 0.18 0.19 0.19 0.21
1.41 1.50 1.66 1.81 1.81 1.86 1.92 2.04 2.35 2.75 2.46 1.97 1.74 1.86 1.52 1.32 1.15 0.74 0.56 0.55 0.61 0.77 0.85 0.80 0.72 0.59 0.47 0.44 0.35 0.30 0.33 0.46 0.69 0.74 0.73 0.61 0.48 0.35 0.27 0.24 0.24 0.24 0.24
1.30 1.37 1.50 1.63 1.75 1.76 1.87 1.96 2.07 2.50 2.76 2.44 2.17 1.83 1.49 1.37 1.41 1.18 0.80 0.65 0.69 0.73 0.80 0.80 0.77 0.76 0.70 0.62 0.56 0.39 0.33 0.34 0.57 0.77 0.84 0.79 0.63 0.48 0.41 0.36 0.33 0.32 0.27
1.40 1.39 1.53 1.59 1.59 1.65 1.74 2.05 2.30 2.54 2.69 2.59 2.48 2.32 2.07 1.74 1.33 1.36 1.29 0.99 0.86 0.79 0.80 0.84 0.85 0.83 0.82 0.80 0.84 0.62 0.42 0.35 0.40 0.68 0.93 0.97 0.86 0.66 0.54 0.48 0.42 0.38 0.33
1.49 1.53 1.59 1.58 1.54 1.57 1.67 1.88 2.14 2.35 2.62 2.76 2.63 2.42 2.27 2.06 1.77 1.59 1.37 1.26 1.19 0.99 0.95 0.95 0.90 0.91 0.92 0.97 1.02 1.02 0.62 0.37 0.33 0.45 0.72 0.94 1.00 0.89 0.74 0.63 0.54 0.50 0.45
1.37 1.41 1.52 1.64 1.70 1.72 1.83 1.99 2.11 2.02 2.23 2.58 2.53 2.37 2.26 2.00 1.93 1.91 1.72 1.46 1.29 1.00 0.95 0.96 0.91 1.00 0.95 0.92 1.13 1.34 0.87 0.53 0.40 0.41 0.49 0.59 0.74 0.89 0.95 0.89 0.79 0.68 0.60
1.33 1.27 1.32 1.43 1.56 1.71 1.75 1.81 1.81 1.77 1.89 2.11 2.17 2.32 2.41 2.15 1.95 1.78 1.67 1.67 1.41 1.17 1.02 0.95 0.86 0.89 0.90 0.91 1.10 1.28 0.91 0.71 0.49 0.42 0.43 0.49 0.50 0.56 0.74 0.88 0.97 0.94 0.88
1.09 1.02 1.02 1.06 1.13 1.20 1.27 1.43 1.53 1.63 1.66 1.77 1.90 2.02 2.17 2.27 2.16 1.90 1.78 1.71 1.61 1.39 1.21 1.12 0.99 0.83 0.92 0.99 1.16 1.00 0.87 0.89 0.70 0.52 0.45 0.45 0.44 0.40 0.44 0.49 0.60 0.69 0.79
1.01 0.93 0.89 0.85 0.82 0.78 0.82 1.00 1.19 1.31 1.42 1.56 1.73 1.84 1.87 1.94 2.12 2.07 1.87 1.81 1.69 1.49 1.32 1.16 1.08 0.95 1.06 1.01 1.12 0.94 0.96 1.05 0.80 0.61 0.50 0.46 0.42 0.34 0.30 0.29 0.28 0.28 0.31
0.99 0.96 0.88 0.82 0.89 0.88 0.83 0.88 0.95 1.01 1.09 1.22 1.36 1.47 1.60 1.86 2.16 2.19 2.13 1.99 1.83 1.64 1.36 1.22 1.02 0.90 1.13 1.20 1.18 1.04 1.02 0.97 0.80 0.72 0.59 0.52 0.47 0.39 0.33 0.29 0.26 0.24 0.22
0.67 0.75 0.83 0.79 0.77 0.79 0.81 0.86 0.89 0.93 0.95 1.03 1.11 1.22 1.36 1.65 2.02 2.24 2.33 2.22 2.04 1.87 1.68 1.52 1.21 0.94 1.01 1.28 1.42 1.34 1.13 0.99 0.90 0.88 0.78 0.66 0.59 0.48 0.39 0.36 0.32 0.28 0.25
0.50 0.54 0.63 0.64 0.72 0.79 0.81 0.83 0.85 0.88 0.90 0.99 1.13 1.17 1.20 1.36 1.57 1.81 2.00 2.11 2.10 2.07 1.99 1.72 1.46 1.19 1.08 1.16 1.39 1.41 1.30 1.26 1.11 1.08 1.08 0.95 0.81 0.71 0.56 0.47 0.43 0.37 0.31
0.52 0.58 0.70 0.74 0.69 0.67 0.72 0.82 0.86 0.80 0.80 0.85 0.94 1.02 1.10 1.12 1.24 1.41 1.54 1.73 1.94 2.15 2.20 2.02 1.76 1.48 1.33 1.18 1.24 1.38 1.46 1.40 1.31 1.17 1.14 1.06 1.03 0.96 0.82 0.65 0.54 0.47 0.45
0.57 0.59 0.70 0.80 0.87 0.82 0.79 0.87 0.84 0.82 0.83 0.81 0.87 0.87 0.92 0.93 0.95 1.10 1.17 1.40 1.72 1.98 2.08 2.11 1.98 1.70 1.45 1.26 1.04 1.09 1.34 1.54 1.53 1.46 1.45 1.25 1.14 1.02 0.94 0.88 0.79 0.68 0.60
0.47 0.47 0.51 0.58 0.67 0.72 0.92 0.87 0.71 0.69 0.74 0.80 0.85 0.85 0.86 0.80 0.77 0.79 0.90 1.04 1.34 1.55 1.68 1.72 1.73 1.58 1.40 1.26 1.19 1.15 1.19 1.30 1.38 1.31 1.32 1.39 1.35 1.22 1.13 1.02 1.04 1.05 0.95
0.40 0.38 0.37 0.37 0.44 0.59 0.67 0.51 0.49 0.56 0.70 0.80 0.86 0.89 0.85 0.81 0.84 0.83 0.80 0.79 0.88 1.08 1.28 1.46 1.47 1.38 1.44 1.35 1.26 1.16 1.16 1.15 1.14 1.25 1.30 1.35 1.35 1.27 1.22 1.20 1.23 1.14 1.07
0.30 0.29 0.36 0.44 0.46 0.47 0.53 0.43 0.42 0.53 0.72 0.84 0.83 0.79 0.85 0.86 0.89 0.94 0.84 0.86 0.81 0.83 0.93 0.98 1.11 1.31 1.45 1.58 1.53 1.41 1.41 1.34 1.27 1.30 1.30 1.27 1.20 1.15 1.10 1.09 1.13 1.01 0.92
0.34 0.37 0.48 0.56 0.49 0.41 0.45 0.46 0.51 0.67 0.79 0.87 0.83 0.82 0.89 0.91 1.03 1.06 0.95 0.99 0.94 0.90 0.88 1.00 1.08 1.18 1.27 1.38 1.48 1.45 1.42 1.37 1.29 1.22 1.17 1.12 1.05 1.05 1.04 0.97 0.94 0.94 0.85
0.31 0.38 0.41 0.38 0.38 0.44 0.50 0.49 0.60 0.79 0.91 1.01 0.97 0.96 1.13 1.06 1.01 0.95 0.91 1.05 1.02 0.87 0.78 0.83 0.89 0.96 1.00 1.10 1.21 1.20 1.28 1.32 1.25 1.16 0.98 0.93 0.97 0.98 0.99 0.89 0.83 0.80 0.77